Location: Arborea
(39.7744°N, 8.5819°E)
Time: 13:01:07
(UTC+00:00)

Cosmos 332 Rocket - Visible Passes

Search period start: 29 May 2022 00:00
Search period end: 08 June 2022 00:00
Orbit: 682 x 702 km, 74.0° (Epoch: 28 May)

Date Brightness Start Highest point End Pass type
(mag) Time Alt. Az. Time Alt. Az. Time Alt. Az.
29 May 4.9 00:49:27 31° WNW 00:49:37 31° WNW 00:53:54 10° N visible
29 May 4.2 23:50:39 60° NNE 23:50:39 60° NNE 23:54:36 10° NNE visible
30 May 6.2 01:29:39 10° WNW 01:30:54 11° NW 01:32:09 10° NW visible
30 May 5.5 22:51:49 23° ENE 22:51:49 23° ENE 22:54:22 10° NE visible
31 May 5.1 00:30:28 29° WNW 00:30:38 29° WNW 00:34:49 10° N visible
31 May 4.2 23:31:37 61° N 23:31:37 61° N 23:35:35 10° NNE visible
01 Jun 5.3 22:32:43 25° ENE 22:32:43 25° ENE 22:35:26 10° NE visible
02 Jun 5.2 00:11:22 27° WNW 00:11:39 27° WNW 00:15:42 10° N visible
02 Jun 4.1 23:12:27 64° N 23:12:27 64° N 23:16:34 10° NNE visible
03 Jun 5.1 22:13:29 28° ENE 22:13:29 28° ENE 22:16:30 10° NE visible
03 Jun 5.4 23:52:08 24° WNW 23:52:40 25° WNW 23:56:36 10° N visible
04 Jun 4.0 22:53:08 67° NNW 22:53:08 67° NNW 22:57:32 10° NNE visible
05 Jun 4.8 21:54:05 33° ENE 21:54:05 33° ENE 21:57:33 10° NE visible
05 Jun 5.6 23:32:44 22° WNW 23:33:40 23° WNW 23:37:29 10° N visible
06 Jun 6.0 20:55:00 11° E 20:55:00 11° E 20:55:39 10° ENE visible
06 Jun 3.9 22:33:39 65° WNW 22:33:43 66° WNW 22:38:29 10° NNE visible
07 Jun 4.4 21:34:30 39° E 21:34:30 39° E 21:38:35 10° NE visible
07 Jun 5.7 23:13:08 18° W 23:14:41 21° WNW 23:18:20 10° N visible
